Location: Cerda�ola
(41.4919°N, 2.1403°E)
Time: 03:49:39
(UTC+00:00)

Cosmos 1892 Rocket - Pass Details

Date: 29 March 2020
Orbit: 605 x 634 km, 82.5° (Epoch: 31 May)

Event Time Altitude Azimuth Distance (km) Brightness Sun altitude
Rises 18:45:57 0° 356° (N) 2,934 7.2 -6.8°
Reaches altitude 10° 18:48:14 10° 1° (N) 2,024 6.4 -7.2°
Maximum altitude 18:52:40 57° 80° (E) 752 3.7 -8.0°
Drops below altitude 10° 18:57:03 10° 159° (SSE) 2,012 5.9 -8.8°
Sets 18:59:19 0° 163° (SSE) 2,915 6.7 -9.2°
